Wind_Speed
37 38 39 40 40 41 41 41 41 41 42 42 42 42 43 43 42 41 41 41 41 42 42 43 43 44 44 44 45 45 45 45 46 46 46 47 47 48 49 50 51 52 52 53
37 37 38 39 39 40 40 40 41 42 42 43 44 44 45 44 43 42 42 42 41 42 42 42 43 43 44 44 44 44 45 45 46 46 47 47 47 48 49 50 51 51 52 53
36 35 36 38 37 37 38 38 39 40 41 42 43 44 44 44 44 43 43 43 42 42 42 42 42 43 43 44 44 44 45 46 46 46 47 47 48 48 49 50 51 51 51 51
36 36 37 36 37 37 38 38 38 40 40 41 42 42 43 43 44 44 44 44 44 43 43 43 42 42 43 43 44 44 45 45 46 46 46 47 47 47 48 48 49 49 49 48
34 36 36 35 34 34 36 37 38 38 39 40 40 41 42 42 42 43 43 43 44 44 43 43 42 42 42 43 43 44 44 45 45 46 46 46 47 47 47 48 48 48 47 47
33 34 35 34 33 33 35 36 36 37 38 38 39 39 39 40 41 41 41 41 42 42 42 42 42 42 42 42 42 43 43 44 44 45 45 46 46 47 47 47 47 47 46 46
31 33 33 33 32 32 33 34 34 35 36 36 37 37 38 38 39 40 40 41 41 41 41 40 40 40 41 41 42 42 42 43 44 44 44 45 46 46 46 46 46 46 45 45
29 31 31 31 31 32 32 32 32 32 33 34 34 35 35 36 37 38 38 39 40 40 40 40 40 40 40 40 40 41 41 42 43 44 44 45 46 46 45 45 45 45 45 45
28 28 28 29 30 30 30 31 31 31 31 31 32 33 34 35 36 37 38 38 39 39 39 40 39 40 40 40 41 41 42 42 42 43 43 44 44 44 43 44 44 44 44 44
29 28 27 27 28 29 29 29 30 30 30 30 31 32 33 35 36 37 37 37 38 38 38 38 39 39 40 40 41 41 41 41 42 42 42 43 42 42 42 43 43 43 43 43
27 27 28 28 28 28 27 27 28 29 30 31 31 32 33 33 34 35 36 37 37 37 37 37 38 39 39 40 40 41 40 40 40 40 40 40 40 40 41 41 41 40 40 40
25 26 27 27 27 27 28 28 28 29 29 30 31 31 32 33 34 35 36 36 36 37 37 37 38 39 39 40 40 39 39 39 39 39 38 38 38 38 38 39 39 38 37 37
23 24 25 25 26 26 27 28 28 29 30 30 31 31 32 33 33 34 35 35 35 36 36 37 37 38 38 39 39 39 38 38 38 37 37 38 38 38 38 37 37 36 35 35
24 24 25 25 26 26 27 28 28 29 29 30 31 31 32 33 33 33 34 34 35 35 36 36 37 37 37 37 37 37 37 36 36 37 37 37 37 37 36 35 34 34 34 34
23 24 24 25 26 26 27 27 28 28 29 30 31 32 32 32 32 33 33 33 34 34 34 35 35 36 36 36 35 35 35 34 35 35 36 36 36 35 35 33 33 33 32 32
21 22 23 24 25 26 27 27 28 29 30 30 31 31 31 31 31 31 32 32 32 32 32 32 33 33 33 33 33 33 33 33 33 34 35 35 35 34 32 31 31 30 29 29
19 20 22 23 24 25 27 28 29 29 30 30 30 30 30 30 30 30 30 30 30 30 31 31 31 32 32 32 32 32 31 32 33 33 33 33 33 31 30 29 28 28 27 26
19 20 21 22 24 25 26 27 28 28 28 29 29 29 30 30 30 30 30 30 30 30 30 31 31 32 32 31 31 31 32 32 32 32 32 31 30 28 27 26 26 25 25 24
19 20 21 22 24 25 26 27 27 28 28 28 28 29 28 28 28 28 28 29 29 30 30 30 30 30 30 30 30 30 31 31 30 30 30 28 27 27 26 25 25 25 24 24
20 21 21 22 23 24 24 25 26 26 27 27 27 27 27 27 27 27 27 28 28 29 29 29 29 29 28 28 29 29 29 28 28 28 27 27 27 26 25 25 24 23 23 22
20 20 21 21 22 23 23 24 24 24 24 24 24 24 24 25 25 26 26 26 27 27 26 27 27 27 27 28 28 28 27 27 27 26 26 26 26 25 24 23 23 22 21 20
20 20 21 21 21 22 22 22 22 22 22 22 22 22 22 22 23 23 23 23 22 23 23 23 24 25 25 26 25 25 25 25 25 24 24 24 23 22 22 21 21 20 19 18
20 20 20 20 21 21 20 20 20 20 20 20 20 21 21 20 20 20 20 20 21 21 21 22 22 22 23 23 23 23 23 23 22 22 21 21 20 19 19 19 18 18 17 16
19 19 19 19 19 19 18 18 18 18 18 19 19 19 20 19 19 19 19 20 20 20 20 19 20 20 21 21 21 21 21 21 20 20 19 18 18 17 17 16 16 15 15 15
18 17 17 17 18 17 17 17 17 17 17 18 18 18 18 18 18 19 19 19 19 19 18 18 19 19 19 19 19 19 19 19 18 18 17 16 15 15 15 14 14 13 13 13
16 16 16 17 17 16 16 16 16 17 17 17 17 17 17 17 18 18 18 18 18 18 18 18 18 17 17 17 17 17 16 16 16 15 14 14 14 13 13 13 13 12 11 11
15 15 15 15 15 15 15 15 16 16 16 16 16 16 17 17 17 17 16 16 16 16 16 16 16 16 16 15 15 15 14 14 14 13 12 12 12 11 11 11 11 10 10 9
Wind_Direction
241 242 244 245 245 245 247 250 250 250 251 251 253 254 255 256 257 258 259 261 263 263 263 264 264 263 263 264 265 266 268 269 270 272 273 274 275 276 277 277 279 281 282 282
243 243 245 246 246 247 249 251 252 252 252 251 252 253 254 256 257 258 259 260 261 262 263 263 263 264 264 264 265 266 268 269 271 273 274 275 276 277 278 279 280 281 282 282
245 245 247 246 246 249 250 251 253 254 254 254 253 254 254 254 255 257 260 260 261 262 262 263 263 263 264 265 266 267 268 270 271 273 274 275 276 277 278 279 280 281 282 283
247 247 249 250 249 250 251 251 252 254 255 255 255 254 255 255 256 258 260 262 262 262 262 263 263 264 264 265 267 268 269 270 272 274 275 276 278 279 280 281 281 282 282 283
248 249 250 250 251 252 252 252 252 253 254 255 256 256 257 257 257 259 261 262 262 262 263 263 264 265 266 267 268 269 271 272 273 275 276 278 279 281 281 281 281 282 282 282
247 248 249 250 251 251 252 253 252 253 255 256 257 257 258 257 258 259 260 262 263 262 263 265 265 266 267 269 270 270 272 273 274 275 276 278 279 281 281 281 281 281 282 282
248 247 249 250 251 251 252 254 254 255 256 257 258 259 259 258 258 259 260 261 262 263 264 265 266 267 268 269 270 272 273 273 274 275 276 278 280 281 282 282 282 282 283 283
247 248 250 250 251 251 254 254 255 256 257 257 258 260 260 259 259 260 260 261 261 262 263 264 266 267 268 269 271 272 273 274 275 276 277 278 280 281 282 282 282 282 282 284
246 250 250 250 251 253 254 255 256 258 259 259 260 260 260 259 259 260 261 261 262 263 264 265 266 268 269 269 270 272 274 275 277 278 279 280 281 282 282 281 282 282 283 284
248 248 249 251 252 253 255 257 258 260 259 260 261 261 262 262 262 262 262 263 264 265 265 266 266 267 269 270 270 272 274 276 278 278 279 281 281 281 282 283 283 284 284 285
249 247 248 250 252 253 254 257 260 261 262 262 262 262 262 263 263 262 262 263 264 265 265 266 266 268 269 270 272 273 275 276 277 277 278 279 280 281 283 283 284 285 285 286
250 249 249 251 253 255 256 258 260 261 262 263 264 265 264 264 264 263 263 264 264 265 265 266 266 267 269 271 273 274 275 277 277 278 278 279 281 282 284 285 286 286 287 288
251 250 251 252 253 256 258 260 261 262 262 264 265 266 267 266 265 266 265 265 266 266 266 266 266 268 270 271 272 274 275 277 278 278 279 281 282 284 285 286 286 287 287 288
251 253 253 255 257 258 260 261 262 262 263 266 267 268 268 268 267 267 267 267 267 268 267 268 268 269 270 272 273 274 275 277 277 278 280 282 283 284 285 285 285 285 287 288
253 254 255 257 259 260 260 262 263 265 266 269 270 270 270 269 268 268 268 268 268 268 269 270 270 270 271 271 272 274 275 276 277 278 280 282 283 285 284 283 283 284 285 286
257 256 257 259 260 261 262 264 267 269 270 272 273 272 271 271 270 269 269 269 269 269 269 270 271 271 272 272 273 275 275 276 277 279 280 282 283 284 283 282 282 283 284 284
263 264 263 264 265 266 267 269 270 271 272 272 272 272 272 272 271 271 270 269 269 269 270 271 272 273 274 274 274 275 276 277 279 281 282 282 282 282 281 281 282 282 282 283
267 269 270 271 271 271 272 272 272 271 271 272 272 271 271 271 271 270 270 269 268 269 270 272 272 273 274 274 275 277 278 279 280 281 281 282 280 279 279 280 280 281 281 281
271 272 274 274 275 275 274 274 273 273 273 274 274 272 271 270 270 270 269 268 269 270 271 272 272 273 275 276 277 278 279 279 279 279 279 278 277 277 277 277 279 280 280 280
277 279 280 280 278 278 278 277 276 276 275 275 274 272 271 270 270 270 271 271 271 272 272 272 272 274 275 276 278 279 279 279 279 279 277 276 276 275 275 276 277 277 278 279
280 283 285 286 284 282 281 280 278 277 276 276 275 274 273 272 271 272 272 273 273 273 271 271 272 274 275 278 279 279 278 278 279 278 276 275 275 273 273 274 274 275 276 275
281 283 285 287 288 286 284 281 279 278 277 276 276 274 273 273 273 273 273 273 274 274 274 274 274 275 277 278 277 278 278 278 278 277 275 274 273 272 271 272 272 271 272 271
282 283 283 286 288 287 284 282 280 278 277 276 276 275 274 274 274 273 273 276 277 278 278 277 277 277 278 278 278 279 279 278 277 275 274 272 271 270 269 269 268 267 266 264
283 284 284 285 288 287 285 284 283 281 279 278 278 277 276 274 273 274 276 278 279 280 279 278 280 281 280 279 279 278 278 277 277 276 273 270 269 268 267 265 263 261 261 260
284 284 284 286 288 287 286 285 286 286 284 281 279 278 277 275 275 276 278 279 279 278 277 279 282 282 281 281 281 280 279 278 277 274 270 267 265 263 261 260 258 259 259 257
284 285 285 287 287 286 286 286 287 289 288 284 281 279 278 278 279 280 280 280 280 278 278 280 281 281 281 282 281 281 280 278 275 269 265 262 260 257 256 255 254 256 254 249
284 285 287 288 286 285 286 288 290 291 290 288 286 283 282 282 282 281 280 280 279 280 280 282 283 283 283 283 281 280 279 276 271 265 261 257 253 251 251 251 248 246 242 238
Height
5551 5554 5557 5560 5563 5566 5568 5571 5574 5578 5580 5583 5583 5585 5586 5588 5591 5593 5595 5596 5597 5598 5599 5599 5600 5600 5600 5601 5601 5601 5601 5601 5600 5599 5598 5596 5595 5593 5591 5589 5587 5584 5582 5579
5541 5544 5546 5549 5553 5556 5558 5561 5563 5566 5569 5571 5571 5573 5575 5577 5579 5581 5583 5584 5585 5587 5587 5588 5588 5588 5589 5589 5589 5589 5589 5588 5588 5587 5585 5584 5582 5581 5578 5576 5574 5571 5568 5566
5532 5535 5536 5540 5544 5546 5548 5551 5553 5555 5558 5559 5560 5562 5564 5566 5568 5569 5571 5572 5574 5575 5576 5576 5577 5577 5577 5577 5577 5577 5577 5576 5575 5574 5573 5571 5570 5568 5565 5563 5561 5558 5555 5552
5522 5525 5527 5533 5534 5536 5538 5540 5542 5544 5546 5547 5549 5551 5553 5555 5557 5558 5560 5561 5562 5563 5564 5565 5565 5565 5565 5565 5565 5565 5564 5564 5563 5562 5560 5559 5557 5555 5552 5550 5547 5545 5542 5539
5512 5514 5517 5522 5524 5526 5528 5530 5532 5534 5535 5537 5538 5540 5542 5544 5545 5547 5548 5549 5550 5551 5552 5552 5553 5553 5553 5553 5553 5552 5552 5551 5550 5549 5548 5546 5544 5542 5540 5537 5535 5532 5529 5527
5503 5505 5508 5513 5515 5516 5518 5520 5522 5524 5525 5527 5528 5530 5532 5532 5534 5535 5536 5537 5538 5539 5540 5540 5541 5541 5542 5542 5541 5541 5540 5539 5538 5536 5535 5533 5532 5529 5527 5524 5522 5519 5517 5514
5494 5496 5499 5503 5505 5507 5510 5511 5512 5514 5515 5516 5517 5519 5520 5521 5522 5524 5525 5526 5527 5527 5528 5529 5529 5530 5530 5530 5529 5529 5528 5526 5525 5524 5523 5521 5519 5516 5514 5511 5509 5507 5504 5502
5486 5488 5493 5493 5495 5498 5499 5500 5502 5503 5505 5506 5507 5508 5509 5510 5511 5513 5514 5515 5515 5516 5517 5517 5517 5518 5518 5518 5517 5517 5516 5514 5513 5512 5510 5508 5506 5504 5501 5498 5496 5494 5491 5489
5480 5482 5483 5484 5486 5488 5490 5491 5493 5494 5496 5497 5498 5498 5499 5500 5501 5502 5503 5503 5504 5505 5505 5506 5506 5506 5506 5505 5505 5504 5503 5502 5501 5499 5497 5495 5493 5491 5489 5486 5484 5481 5479 5476
5471 5473 5474 5476 5478 5480 5481 5482 5484 5485 5486 5487 5488 5489 5489 5490 5490 5491 5492 5492 5493 5493 5494 5494 5494 5494 5494 5493 5493 5492 5491 5490 5488 5487 5485 5483 5481 5479 5476 5474 5471 5468 5466 5463
5462 5465 5466 5468 5470 5471 5473 5474 5475 5476 5477 5477 5478 5479 5479 5479 5480 5480 5481 5481 5482 5482 5482 5482 5482 5482 5482 5481 5481 5480 5479 5478 5476 5474 5473 5471 5469 5467 5464 5462 5459 5456 5454 5451
5455 5457 5459 5460 5461 5463 5464 5466 5466 5467 5468 5468 5468 5469 5469 5469 5469 5470 5470 5470 5470 5471 5471 5471 5471 5470 5470 5469 5469 5468 5467 5466 5464 5463 5461 5459 5458 5456 5453 5450 5448 5445 5442 5440
5448 5449 5451 5453 5454 5455 5456 5457 5458 5458 5458 5458 5459 5459 5459 5459 5459 5459 5459 5459 5459 5459 5460 5460 5459 5459 5458 5458 5457 5456 5455 5454 5453 5451 5450 5448 5446 5445 5443 5440 5437 5435 5432 5429
5440 5442 5444 5445 5446 5447 5448 5448 5449 5449 5449 5449 5449 5449 5449 5449 5449 5449 5449 5449 5449 5449 5449 5449 5448 5448 5447 5446 5446 5445 5444 5443 5442 5440 5439 5437 5435 5433 5431 5429 5427 5425 5423 5420
5434 5435 5436 5437 5438 5439 5439 5440 5440 5440 5440 5440 5440 5439 5439 5439 5439 5438 5438 5438 5438 5438 5438 5438 5437 5437 5436 5435 5434 5434 5433 5432 5431 5429 5428 5426 5425 5423 5421 5419 5417 5415 5413 5411
5427 5428 5429 5430 5430 5431 5431 5431 5431 5431 5431 5430 5430 5429 5429 5429 5428 5428 5428 5428 5428 5428 5428 5427 5427 5426 5425 5425 5424 5423 5422 5421 5420 5419 5418 5416 5414 5413 5411 5409 5408 5406 5404 5402
5421 5421 5422 5422 5422 5423 5423 5423 5422 5422 5421 5421 5420 5420 5419 5419 5419 5419 5418 5418 5418 5418 5418 5417 5417 5416 5415 5415 5414 5413 5412 5411 5410 5408 5407 5405 5404 5403 5401 5400 5398 5397 5395 5393
5415 5415 5415 5415 5415 5414 5414 5413 5413 5413 5412 5412 5411 5410 5410 5409 5409 5409 5408 5408 5408 5408 5408 5407 5407 5406 5405 5405 5404 5403 5402 5401 5400 5398 5397 5395 5394 5393 5392 5391 5390 5388 5387 5386
5408 5408 5407 5407 5406 5406 5405 5405 5404 5403 5403 5402 5401 5400 5400 5399 5399 5399 5398 5398 5398 5398 5398 5397 5396 5396 5395 5395 5394 5393 5392 5391 5389 5388 5387 5386 5385 5384 5384 5383 5382 5381 5379 5378
5401 5401 5400 5399 5398 5397 5396 5396 5395 5394 5393 5392 5391 5390 5390 5389 5389 5389 5389 5388 5388 5388 5387 5387 5386 5386 5386 5385 5384 5383 5382 5381 5380 5379 5378 5377 5376 5376 5375 5375 5374 5373 5372 5371
5395 5394 5393 5392 5391 5389 5388 5387 5386 5385 5384 5383 5382 5382 5381 5380 5380 5380 5379 5379 5379 5378 5378 5377 5377 5376 5376 5375 5374 5373 5373 5372 5371 5370 5369 5369 5368 5367 5367 5367 5366 5366 5365 5364
5388 5387 5386 5384 5383 5382 5380 5379 5378 5377 5376 5375 5374 5374 5373 5372 5372 5371 5371 5370 5370 5369 5369 5368 5368 5367 5367 5366 5365 5364 5364 5363 5362 5361 5361 5360 5360 5359 5359 5359 5359 5358 5358 5358
5381 5380 5379 5378 5376 5375 5373 5372 5371 5370 5369 5368 5367 5367 5366 5365 5364 5364 5364 5363 5362 5361 5361 5360 5360 5359 5358 5357 5357 5356 5355 5355 5354 5353 5353 5352 5352 5352 5352 5352 5351 5351 5352 5352
5374 5373 5372 5371 5370 5368 5367 5366 5365 5363 5362 5361 5360 5360 5359 5358 5358 5357 5356 5356 5355 5354 5353 5353 5352 5351 5350 5349 5349 5348 5347 5347 5346 5345 5345 5345 5345 5345 5345 5345 5345 5345 5346 5346
5368 5367 5366 5365 5364 5362 5361 5360 5359 5358 5356 5355 5354 5353 5352 5352 5351 5350 5350 5349 5348 5347 5346 5346 5345 5344 5343 5342 5341 5340 5340 5339 5339 5338 5338 5338 5338 5338 5339 5339 5339 5340 5340 5340
5362 5361 5360 5359 5358 5357 5356 5355 5353 5352 5351 5349 5348 5347 5346 5345 5344 5343 5343 5342 5341 5340 5339 5339 5338 5337 5336 5335 5334 5333 5333 5332 5332 5332 5332 5332 5332 5333 5334 5334 5335 5335 5335 5336
5357 5356 5355 5354 5353 5352 5351 5349 5348 5347 5345 5344 5343 5342 5340 5339 5338 5337 5336 5335 5335 5334 5333 5332 5331 5330 5329 5328 5328 5327 5327 5326 5326 5327 5327 5327 5328 5328 5329 5330 5330 5331 5332 5332